GFSNE_con_mucape_159.txt.gz
CAPE
772 849 882 878 869 674 875 728 534 371 288 184 287 200 248 406 493 320 534 357 263 227 184 73 99 0 0 0 0 0 0 0 0 0 0 0 0 0
902 862 780 671 645 831 988 880 627 462 331 190 292 424 562 780 298 692 651 481 388 367 306 145 66 0 0 0 0 0 0 0 0 0 0 0 0 0
903 875 608 549 663 673 744 688 736 669 452 241 254 467 494 294 776 745 605 509 446 455 331 175 46 0 0 0 0 0 0 0 0 0 0 0 2 5
830 743 595 759 761 751 560 746 605 633 611 442 350 441 466 192 327 635 525 454 385 369 197 2 0 0 0 0 0 0 0 0 0 0 0 0 2 0
715 781 686 757 773 542 655 708 821 801 726 787 738 481 300 460 394 654 465 327 352 293 33 5 8 2 0 0 0 2 1 3 1 0 1 16 8 2
789 814 869 697 645 571 646 663 791 718 850 778 734 652 541 628 461 287 274 264 365 103 37 8 11 9 8 7 4 7 6 2 0 0 0 0 0 0
943 1104 1071 1009 909 674 707 629 686 649 841 760 671 606 473 371 485 327 258 272 158 49 28 39 14 19 14 21 14 0 1 0 0 0 0 0 0 0
1127 1073 1092 1139 1060 838 768 901 1050 898 747 837 650 585 478 478 489 427 328 248 117 56 9 33 61 26 14 19 3 0 0 0 0 0 0 0 0 0
884 987 1003 963 1002 1026 992 955 964 926 946 947 832 735 519 276 436 387 413 267 102 89 67 10 73 57 36 25 28 0 0 0 0 0 0 0 0 0
871 1048 1055 1025 1044 1020 957 883 824 842 854 796 764 868 649 313 339 352 344 231 173 159 110 96 57 21 27 15 2 0 0 0 0 0 0 0 0 0
671 706 828 973 1075 1070 885 841 803 806 736 661 646 694 555 459 344 279 195 167 186 147 121 130 53 47 7 0 0 0 0 0 0 0 0 0 0 0
516 533 490 584 846 936 860 710 515 548 512 510 446 346 454 336 229 148 106 105 101 88 77 60 2 0 0 0 1 0 0 0 0 0 0 0 0 0
32 536 642 843 946 798 777 654 491 373 213 207 138 160 157 128 110 83 85 60 36 35 5 1 4 23 5 1 1 2 3 0 0 0 0 0 0 0
0 18 687 781 940 1015 860 791 597 348 214 110 169 130 120 72 82 71 68 60 54 14 0 24 1 34 0 0 1 22 2 0 0 0 0 0 0 0
0 0 91 651 851 1047 1037 835 541 504 291 148 205 82 81 50 46 41 45 69 24 3 6 0 0 0 0 0 0 1 0 0 0 0 0 0 0 0
5 3 6 197 785 736 789 591 446 357 321 293 215 64 85 34 3 15 31 50 3 4 0 0 0 0 0 0 0 0 0 0 0 0 0 0 0 0
30 23 4 14 409 631 419 407 397 442 444 312 259 126 79 35 11 7 43 2 3 0 0 0 0 0 0 0 0 0 0 0 0 0 0 0 0 0
29 21 17 14 170 359 319 287 399 287 218 232 161 102 41 4 3 8 0 0 0 0 0 0 0 0 0 0 0 0 0 0 0 0 0 0 0 0
26 69 36 79 407 234 347 482 307 134 83 91 84 67 16 4 0 4 1 0 0 0 0 0 0 0 0 0 0 0 0 0 0 0 0 0 0 0
84 51 128 183 160 230 111 164 171 70 32 55 32 4 1 2 0 0 0 0 0 0 0 0 0 0 0 0 0 0 0 0 0 0 0 0 0 0
43 38 92 65 101 95 155 131 132 36 3 2 0 3 2 0 0 0 0 0 0 0 0 0 0 0 0 0 0 0 0 0 0 0 0 0 0 0
0 1 8 10 1 3 3 6 3 2 0 1 1 0 0 0 0 0 0 0 0 0 0 0 0 0 0 0 0 0 0 0 0 0 0 0 0 0
0 1 0 0 1 3 0 3 3 0 0 0 0 0 0 0 0 0 0 0 0 0 0 0 0 0 0 0 0 0 0 0 0 0 0 0 0 2

GFSNE_con_mucape_165.txt.gz
CAPE
2045 2005 1874 1230 1479 1628 1941 1474 1023 582 297 511 814 1537 1687 1479 1269 1616 1467 309 313 165 67 116 50 55 1 0 0 0 0 0 0 0 0 0 0 0
1746 1922 2064 1402 2077 1642 2746 2199 1797 1774 873 711 820 1439 1723 1679 1351 1512 1329 392 307 173 161 207 152 48 5 0 0 0 0 0 0 0 0 0 0 0
2009 1937 2152 2162 1188 1585 2196 2621 2709 2473 1427 1070 1423 1407 1866 1984 1541 1388 710 634 245 222 194 202 124 7 0 0 0 0 0 0 0 0 0 0 0 0
1948 2086 1845 1996 1879 1827 1653 1869 2229 2284 2136 1965 2414 1101 1671 1710 1492 744 581 259 308 286 252 161 10 0 0 0 0 0 0 0 0 0 0 0 0 0
1959 1969 1899 1828 1963 1433 1890 1686 2196 2404 2607 1744 1648 1277 2139 1418 533 403 283 399 290 232 219 79 4 0 0 0 0 0 0 0 0 0 0 0 0 0
1890 1954 1876 1871 1936 2320 2170 2137 2659 2427 2220 1858 864 1407 2356 1807 898 584 376 202 254 160 148 83 13 0 0 0 0 0 0 0 0 0 0 0 0 0
1401 1626 1746 1677 1295 1495 2005 2233 2248 2254 2292 1405 1709 1536 1679 1301 820 439 405 295 200 135 156 99 46 0 2 1 7 0 3 0 0 0 0 0 0 0
748 982 1215 986 861 636 638 642 1429 2509 2403 1445 979 1275 1508 2025 2189 681 418 389 184 129 221 154 64 34 0 2 1 0 0 0 0 0 0 0 0 0
355 285 284 260 639 1263 1047 774 685 661 704 2357 1921 1787 1901 2002 2850 1069 507 443 316 199 174 122 74 55 21 13 13 11 1 0 0 0 0 0 0 0
223 548 524 547 732 1074 1669 1620 1614 1424 880 797 1358 1758 1885 3022 3123 2665 1170 476 355 195 165 168 110 113 65 39 27 15 1 0 0 0 0 0 0 0
1 2 122 648 518 576 1123 1249 1517 1803 967 945 817 1040 1247 1179 1773 1681 932 515 305 257 174 213 137 123 136 69 7 14 2 0 0 0 0 0 0 0
0 0 0 0 2 229 481 1110 1813 1204 1411 1436 559 434 480 615 604 1041 637 328 183 138 151 185 156 128 85 60 9 8 0 0 0 0 0 0 0 0
0 0 0 0 2 11 47 976 1333 1596 1307 1216 735 242 288 303 252 335 287 107 151 87 82 127 104 110 67 83 37 6 0 0 3 0 0 0 0 0
0 0 0 0 1 4 25 38 210 522 1109 391 185 167 128 90 123 105 41 37 59 92 107 68 78 68 63 27 11 0 0 11 17 2 0 0 0 0
0 0 0 0 0 0 0 14 227 731 1216 888 154 48 53 94 8 14 61 69 42 82 78 4 84 42 2 2 1 2 4 1 31 8 0 0 0 0
0 0 0 0 0 0 15 0 250 566 710 657 277 62 33 21 11 15 71 82 113 99 52 56 3 20 35 15 3 1 1 29 13 3 0 0 0 0
7 1 3 3 6 5 18 17 363 516 375 689 644 405 291 267 273 216 156 164 77 38 115 15 11 23 4 4 1 13 29 13 0 0 0 0 0 0
7 7 7 7 5 2 8 27 307 240 286 299 269 393 121 112 97 82 32 33 61 10 2 2 1 2 1 2 9 6 1 0 0 0 0 0 0 0
0 9 3 6 5 4 3 68 96 320 371 259 223 202 97 42 110 110 55 33 20 2 3 6 0 0 0 0 0 0 0 0 0 0 0 0 0 0
0 0 1 9 11 9 99 225 297 381 214 116 148 103 51 41 36 32 8 9 0 2 3 0 0 0 0 0 0 0 0 0 0 0 0 0 0 0
0 0 3 16 22 8 31 139 155 130 92 39 53 36 14 2 4 2 3 2 0 0 0 1 0 0 0 0 0 0 0 0 0 5 2 0 0 0
0 0 0 3 0 5 23 40 40 32 14 6 0 0 0 0 0 0 0 0 6 9 11 0 0 0 0 1 1 0 6 0 0 0 0 0 0 0
0 0 0 0 0 0 0 0 0 0 0 0 0 0 0 0 0 0 0 0 0 0 0 0 0 0 0 0 0 0 0 0 0 0 0 0 0 0

GFSNE_con_mucape_168.txt.gz
CAPE
1825 1928 1837 1244 507 720 1059 1008 688 419 154 217 632 1781 1429 1908 1556 1773 2102 379 194 190 121 53 92 56 19 0 0 0 0 0 0 0 0 0 0 0
1472 1886 2081 1439 1242 1038 988 1247 1089 1554 1050 629 686 1019 1548 1419 1592 1836 1589 459 263 209 136 125 163 135 35 0 0 0 0 0 0 0 0 0 0 0
2130 1679 1824 2349 1576 1185 1150 1130 1253 1346 1373 1009 1617 1253 2344 2141 1609 1943 1397 1428 219 161 133 146 168 96 15 0 0 0 0 0 0 0 0 0 0 0
2101 2386 1948 1570 2223 1951 1427 1853 1551 1187 1168 2428 1965 1271 1740 1750 2104 2136 1452 1011 700 180 166 169 119 19 4 0 0 0 0 0 0 0 0 0 0 0
1603 1827 1959 1933 2678 1622 1673 1469 1485 1656 1539 1396 1262 1265 2206 1501 1806 1061 952 621 309 217 210 159 94 19 13 0 0 0 0 0 0 0 0 0 0 0
1809 1922 2005 2065 2217 2305 2722 2141 1868 1596 1787 1359 1093 745 1761 1819 2570 743 445 443 342 183 196 158 104 46 40 0 0 0 0 0 0 0 0 0 0 0
1414 1745 1953 1809 1454 1715 2904 3002 2910 2149 1190 800 764 661 906 2188 1965 1093 671 467 240 253 155 130 115 91 65 4 0 0 0 0 0 0 0 0 0 0
1202 1302 1396 989 836 831 960 947 1019 2656 2556 1014 620 850 2039 1606 3184 2082 742 430 287 257 235 138 148 212 102 68 0 1 0 0 0 0 0 0 0 0
1079 1170 1166 615 361 911 928 820 619 441 578 2335 2543 2011 2411 2597 2842 2367 871 468 397 318 288 217 269 315 103 73 9 13 9 9 0 0 0 0 0 0
3 74 268 562 1263 928 901 1079 1473 1687 1449 915 1392 1905 2228 2237 2875 3377 2013 1377 688 378 399 355 231 259 142 94 89 60 18 30 1 0 0 0 0 0
0 0 0 3 37 205 670 1244 1660 2439 1793 1206 1084 984 1036 958 1475 3278 2779 913 585 589 300 231 199 237 212 145 103 29 83 38 12 0 0 0 0 0
0 0 0 0 0 0 3 769 988 1719 2135 1974 1052 843 645 890 670 1469 1534 623 452 340 253 202 178 171 148 144 111 53 48 13 7 0 0 0 0 0
1 0 0 0 0 0 0 3 598 742 1530 1970 1445 1055 576 222 274 363 501 588 547 267 118 47 90 114 106 81 32 27 39 7 4 0 0 0 0 0
0 0 0 0 0 0 0 3 2 4 922 1558 1172 686 453 136 164 162 122 60 24 3 26 40 39 20 29 70 7 25 9 3 0 0 0 0 0 0
0 0 0 0 0 0 0 0 5 8 341 871 488 853 353 128 63 0 0 0 7 2 7 28 29 19 13 46 30 16 5 4 0 0 0 6 27 12
0 0 0 0 2 0 0 0 5 6 27 111 608 1034 605 177 29 0 2 2 1 4 72 55 42 0 0 16 4 0 7 5 0 34 5 1 0 0
0 0 0 3 1 6 3 9 62 16 42 313 743 896 509 204 126 117 120 150 101 42 28 35 5 0 4 21 9 2 8 11 8 7 0 3 0 0
0 0 0 1 4 9 7 31 24 12 188 409 471 465 468 349 348 337 205 94 50 30 90 10 0 0 2 3 0 0 17 6 10 5 5 0 3 0
0 0 0 0 0 0 18 29 17 61 152 347 672 436 519 311 180 86 64 84 2 1 2 2 3 4 0 0 0 9 18 5 0 0 0 0 0 4
0 0 0 0 5 6 12 6 10 94 207 406 465 494 282 159 58 87 45 29 2 7 6 2 3 1 12 8 1 0 0 3 5 8 1 0 0 0
0 0 0 0 0 0 6 27 46 104 101 70 141 131 78 68 13 1 1 4 2 2 0 0 40 27 23 9 1 0 0 0 2 16 10 4 8 5
0 0 0 0 0 1 2 3 21 4 18 24 35 12 11 1 0 0 0 0 0 0 15 1 5 0 8 17 12 7 6 0 0 0 0 0 0 0
14 0 0 0 0 0 0 2 1 2 0 1 0 0 0 0 0 0 5 12 19 23 14 10 17 5 0 1 2 7 9 2 1 0 0 0 0 0

GFSNE_con_mucape_171.txt.gz
CAPE
1636 2102 2159 1062 597 248 188 636 380 372 213 1715 805 923 1428 2534 1304 1441 1992 745 118 74 103 63 24 42 40 6 0 0 0 0 0 0 0 0 0 0
1761 2409 2750 1620 1363 1227 1103 594 537 971 765 1420 2251 2633 1793 1786 1444 1491 2225 1061 179 141 127 79 60 93 87 17 0 0 0 0 0 0 0 0 3 11
2624 2796 2995 3435 1737 1716 1228 1273 1158 738 761 663 1862 1507 2412 2256 1568 2254 1102 1203 480 189 116 88 97 103 69 3 0 0 0 0 0 0 0 0 0 0
2733 3049 2236 1813 3077 3108 1980 2833 2012 1445 1286 2427 1369 1183 2562 3184 2087 2449 1710 2150 1035 147 100 73 87 90 34 0 4 0 0 0 0 0 0 0 0 0
2799 2953 2601 2673 3042 1992 2433 1866 1733 1466 1653 1333 1001 1489 1411 1859 2324 2259 2064 1522 838 552 212 133 115 70 30 18 22 0 0 0 0 0 0 0 0 0
2837 2798 2710 2691 2850 2947 2538 3034 2548 2311 2112 1720 1490 842 1021 1951 2132 1708 1083 886 576 364 235 158 134 86 42 49 30 0 0 0 0 0 0 0 0 0
2684 2575 2696 2627 1738 1849 2928 2745 2826 3037 1621 1342 980 883 1024 2341 2413 2443 1328 387 340 364 168 84 112 152 88 74 54 24 0 0 0 0 0 0 0 0
2103 2555 2723 1769 1464 952 910 1062 1108 2909 2709 1944 1588 800 1993 2167 2144 3105 2473 874 437 231 232 139 102 148 125 118 162 88 66 0 0 0 0 0 0 0
1610 1739 1808 1324 1163 2060 1371 839 646 720 797 2430 2970 2741 2639 3091 3037 3284 2218 722 471 263 237 171 171 149 135 153 298 124 122 12 12 7 0 0 0 0
0 9 127 490 712 767 1631 1586 1742 2097 1575 936 1356 2356 3060 3088 3427 3266 2858 1752 1454 624 458 233 165 152 184 150 234 199 135 69 24 13 12 0 0 0
0 0 0 0 0 0 1 223 1410 1880 1140 1177 1104 1089 1130 1024 1171 2238 1377 1044 832 588 370 382 258 239 215 161 148 166 167 75 32 0 7 5 0 0
0 0 0 0 0 0 0 0 1 66 1547 2012 2435 951 743 748 652 544 775 1325 763 509 395 381 290 279 140 48 81 149 55 109 8 19 11 13 5 0
0 0 0 0 0 0 0 0 9 13 10 560 1939 2575 2315 1659 624 429 240 704 643 413 301 260 145 48 7 6 23 82 66 54 14 10 0 3 0 0
0 0 0 0 0 0 0 0 0 0 4 31 629 1524 1096 804 420 146 117 186 575 557 228 162 4 0 10 15 26 3 31 6 7 7 7 0 0 0
0 0 0 0 0 0 0 0 0 0 20 20 305 458 696 550 395 146 177 135 192 193 55 1 12 28 44 63 14 16 2 1 2 0 3 1 0 0
0 0 0 0 0 3 0 0 0 0 13 45 145 109 709 287 206 201 156 78 0 1 4 3 17 70 97 1 2 0 2 4 3 2 4 97 71 82
0 0 0 0 0 4 3 2 0 22 64 10 25 167 254 256 347 193 164 98 102 108 151 116 76 23 19 24 34 0 11 4 3 21 77 62 52 18
0 0 0 0 0 4 1 10 6 20 7 22 60 114 325 491 347 193 194 367 353 144 60 51 60 52 2 0 4 5 1 3 0 14 3 51 10 0
0 0 0 0 0 2 7 26 12 22 58 70 89 172 295 435 318 511 272 188 183 37 0 0 0 4 2 2 0 1 0 3 3 3 25 50 46 51
0 0 0 0 0 1 1 23 29 36 53 71 116 131 164 180 188 150 47 69 75 143 16 7 5 5 2 1 0 3 0 47 33 31 21 22 0 0
0 0 0 0 4 1 16 9 29 48 112 84 110 74 112 97 100 56 13 23 1 0 0 2 1 0 0 19 13 8 0 4 3 32 67 16 12 4
0 0 0 0 0 1 9 1 24 50 59 41 25 33 10 16 14 6 0 0 0 0 0 0 35 54 49 12 6 12 4 0 0 0 0 0 0 2
15 8 2 0 0 0 0 0 9 10 3 0 0 0 0 0 0 0 0 0 0 0 28 15 10 8 33 17 12 3 19 0 0 0 0 0 0 0

GFSNE_con_mucape_174.txt.gz
CAPE
1729 1362 1759 2047 1241 822 840 1286 815 821 750 996 515 1593 2195 1575 1378 1466 865 772 430 231 185 168 190 188 86 23 0 0 0 0 0 0 0 0 0 3
2047 2211 2466 1741 1754 2148 1213 1620 977 959 1017 799 471 1733 1883 2033 1530 2154 1897 1095 518 51 37 38 28 11 22 43 1 0 0 0 0 0 0 0 17 14
2499 2527 2732 2830 1831 1600 1816 2351 1089 1592 969 887 1382 2381 2840 2042 1330 1498 1490 977 801 372 67 49 0 0 37 32 0 0 0 0 0 0 0 0 0 0
2631 2584 2482 1973 2524 2944 1953 1711 1669 1935 1735 1319 1008 1772 2107 2874 2233 2386 2053 1908 928 674 163 48 9 0 15 0 0 0 0 0 0 0 0 0 0 0
2593 2465 2571 2777 2347 2228 2449 1995 1772 1833 1858 1609 1357 1431 1598 2703 2348 2006 1720 1751 864 744 646 168 86 21 50 0 0 0 0 0 0 0 0 0 0 0
2781 2882 2376 2019 2386 2506 2078 1835 1895 1972 1641 1357 1303 1054 787 800 1877 1510 1622 1159 801 772 606 275 202 122 97 53 0 36 38 3 0 0 0 0 0 0
2766 2417 2042 2175 2098 2183 1989 1808 1984 1217 1096 1293 1206 1128 1177 990 1490 1523 1248 831 536 551 424 224 240 136 156 137 104 92 96 61 12 0 0 0 0 0
2370 2303 2728 2179 2039 1595 1204 1134 1561 1606 1302 1163 1058 865 1254 1161 1225 1092 1074 843 282 216 256 166 173 115 114 114 176 177 112 131 89 41 10 1 4 0
2067 1852 1581 1226 1159 1672 1473 1302 1092 985 854 1015 960 858 802 1063 1149 847 1051 744 454 198 179 98 78 82 88 119 130 157 118 121 99 74 31 10 8 0
737 514 174 54 53 17 0 45 263 755 1271 995 672 770 976 1249 1584 1071 1038 720 538 588 330 215 110 95 123 126 164 162 126 123 124 88 26 1 0 0
0 0 0 0 0 0 0 0 0 0 0 238 770 1178 918 837 793 850 711 708 674 607 408 242 175 132 173 155 163 153 152 88 80 84 71 18 10 26
0 0 0 0 0 0 0 0 0 0 0 0 0 320 579 801 787 536 490 411 396 278 227 176 15 78 94 165 185 124 19 13 4 11 45 19 40 20
0 0 0 0 0 0 0 0 0 0 0 0 0 0 229 706 804 504 805 553 269 123 123 85 0 23 102 124 67 3 5 3 0 1 8 10 9 7
0 0 0 0 0 0 0 0 0 0 0 0 0 3 26 489 755 733 407 241 266 181 173 118 149 127 102 22 79 71 1 34 5 7 2 6 2 4
0 0 0 0 0 0 0 0 3 0 0 0 0 31 38 121 486 518 192 111 75 121 188 419 109 26 0 9 83 105 70 9 0 0 6 1 0 0
0 0 0 0 0 0 0 0 8 1 0 0 1 42 47 77 122 458 122 137 147 295 213 25 0 17 25 51 95 51 33 39 0 4 6 0 0 2
0 0 0 0 0 0 0 0 2 2 0 0 5 61 41 66 101 139 91 111 104 94 27 10 66 102 173 215 52 46 58 4 3 3 2 0 16 52
0 0 0 0 0 0 0 4 2 3 6 14 13 71 60 47 135 40 222 98 117 70 161 199 141 119 166 140 20 5 2 0 0 4 1 34 37 5
0 0 0 0 0 0 4 2 3 13 2 92 23 21 41 58 89 60 63 72 79 58 49 20 46 46 6 6 6 0 0 1 1 0 26 4 22 3
0 0 0 0 0 0 4 2 1 11 16 48 20 55 83 45 74 108 72 23 17 2 2 10 0 0 13 12 2 0 1 6 9 6 2 9 7 7
0 0 0 0 0 0 0 1 12 7 39 59 68 86 63 40 45 50 9 8 0 0 5 1 0 0 0 0 0 0 4 0 6 15 11 11 6 0
7 13 0 0 0 0 0 1 10 2 0 9 6 7 20 50 26 6 0 0 0 1 2 0 0 0 0 1 0 0 0 0 3 13 12 3 1 4
9 0 14 20 0 0 0 0 0 10 1 0 0 0 0 1 0 0 0 0 0 0 0 0 0 0 11 21 6 0 0 0 0 0 0 0 0 0